Regional Weather Roundup
Issued by NWS

Home | Current Version | Previous Version | Text Only | Print | Product List | Glossary Off
Versions: 1 2 3 4 5 6 7 8 9 10 11 12 13 14 15 16 17 18 19 20 21 22 23 24 25 26 27 28 29 30 31 32 33 34 35 36 37 38 39 40 41 42 43 44 45 46 47 48 49 50

000
ASUS43 KFSD 281410
RWRSD

WEATHER ROUNDUP FOR SOUTH DAKOTA
NATIONAL WEATHER SERVICE SIOUX FALLS SD
900 AM CDT FRI APR 28 2017

NOTE: "FAIR" INDICATES FEW OR NO CLOUDS BELOW 12,000 FEET WITH NO
SIGNIFICANT WEATHER AND/OR OBSTRUCTIONS TO VISIBILITY.


SDZ001>005-009-010-012>017-281500-
NORTHWEST AND NORTH CENTRAL SOUTH DAKOTA

CITY           SKY/WX    TMP DP  RH WIND       PRES   REMARKS
BUFFALO          N/A     37  27  67 E10       29.86R
FAITH            N/A     35  31  85 NE13      29.92R WCI  26
MOBRIDGE       SUNNY     42  25  50 E10       29.94R
$$

SDZ012>016-024>037-041>051-057-063-072>074-281500-
SOUTHWEST AND SOUTH CENTRAL SOUTH DAKOTA

CITY           SKY/WX    TMP DP  RH WIND       PRES   REMARKS
RAPID CTY ARPT CLOUDY    36  30  79 NE10      29.87R
PIERRE         PTSUNNY   36  29  75 E18       29.92R
CUSTER         SNOW      29  25  85 E16G28    29.76R VSB 1/2 WCI  17
ELLSWORTH AFB  CLOUDY    36  31  82 NE10      29.87R
PHILIP         PTSUNNY   37  31  78 E10       29.89R
PINE RIDGE     LGT SNOW  34  33  96 E16G23    29.80R VSB 3/4 WCI  24
SPEARFISH      PTSUNNY   34  32  93 E14       29.86R WCI  24
WINNER         FAIR      39  31  72 E10       29.88R
$$

SDZ004>011-016>023-039-040-281500-
NORTHEAST SOUTH DAKOTA

CITY           SKY/WX    TMP DP  RH WIND       PRES   REMARKS
ABERDEEN       SUNNY     38  29  70 N7        29.97R
WATERTOWN      SUNNY     37  28  70 N17       29.91S
BROOKINGS      CLOUDY    36  25  64 NE15      29.91R
SISSETON         N/A     38  29  70 N8        29.95R
$$

SDZ017-020-022-023-036>040-048>070-281500-
SOUTHEAST SOUTH DAKOTA

CITY           SKY/WX    TMP DP  RH WIND       PRES   REMARKS
SIOUX FALLS    PTSUNNY   36  31  82 NE6       29.92R
HURON          CLOUDY    41  27  57 NE13      29.94R
CHAMBERLAIN    PTSUNNY   37  32  80 N10       29.91R
MITCHELL       CLOUDY    36  31  82 NE8       29.93R
YANKTON        CLOUDY    36  28  75 NE6       29.90R
$$

ABBREVIATIONS USED IN REMARKS
   TC - TEMPERATURE IN CELSIUS
  WCI - WIND CHILL INDEX
   HX - HEAT INDEX
  VSB - VISIBILITY





USA.gov is the U.S. government's official web portal to all federal, state and local government web resources and services.